Flag for Spain Weather past 2 weeks in Granada, Spain

Now
70 °F

Passing clouds.


Feels Like: 70 °F
Forecast: 55 / 80 °F
Wind: 5 mph from Southwest

Location: Granada / Aeropuerto


UV Index: 7 (High)

Visibility: N/A


Pressure: 30.01 "Hg

Humidity: 33%

Dew point: 39 °F

Location of GranadaLocation

Historic Weather in Granada

°F

Granada temperature yesterday

Maximum temperature yesterday: 82 °F (at 3:00 PM)
Minimum temperature yesterday: 46 °F (at 7:00 AM)
Average temperature yesterday: 68 °F

Past Weeks' High & Low Weather Summary

 TemperatureHumidityPressure
High88 °F (Apr 8, 5:00 PM)100% (Apr 6, 6:00 AM)30.24 "Hg (Apr 6, 6:00 AM)
Low43 °F (Apr 3, 8:00 AM)13% (Apr 10, 10:30 PM)29.59 "Hg (Apr 2, 9:00 PM)
Average65 °F57%30.05 "Hg
* Reported Apr 2 9:00 PM — Apr 17 9:30 PM, Granada, Weather by CustomWeather, © 2014

Note: Actual official high and low records may vary slightly from our data, if they occured in-between our weather recording intervals... More about our weather records

Advertising

Historic Weather Conditions — Data for Previous 24 hours

 ConditionsComfort  
Time TempWeatherWind HumidityBarometerVisibility
9:30 PM
Apr 17
73 °FPassing clouds.10 mph31%30.01 "HgN/A
9:00 PM75 °FPassing clouds.8 mph29%29.98 "HgN/A
8:30 PM77 °FPassing clouds.13 mph30%29.98 "HgN/A
8:00 PM77 °FPassing clouds.10 mph30%29.98 "HgN/A
7:00 PM82 °FPassing clouds.12 mph26%29.98 "HgN/A
6:30 PM82 °FPassing clouds.13 mph26%29.98 "HgN/A
6:00 PM84 °FPassing clouds.12 mph27%29.98 "HgN/A
5:30 PM86 °FPassing clouds.3 mph25%29.98 "HgN/A
5:00 PM84 °FPassing clouds.5 mph25%29.98 "HgN/A
4:30 PM86 °FPassing clouds.5 mph22%30.01 "HgN/A
4:00 PM84 °FPassing clouds.1 mph27%30.01 "HgN/A
3:30 PM84 °FPassing clouds.2 mph27%30.04 "HgN/A
3:00 PM82 °FPassing clouds.3 mph26%30.04 "HgN/A
2:30 PM84 °FPassing clouds.5 mph22%30.04 "HgN/A
2:00 PM82 °FPassing clouds.3 mph28%30.04 "HgN/A
1:30 PM81 °FPassing clouds.1 mph32%30.07 "HgN/A
1:00 PM79 °FSunny.1 mph39%30.07 "Hg10 mi
12:30 PM75 °FSunny.No wind47%30.07 "Hg10 mi
12:00 PM73 °FSunny.No wind47%30.09 "Hg10 mi
11:30 AM70 °FSunny.No wind53%30.09 "Hg10 mi
11:00 AM66 °FSunny.No wind60%30.09 "Hg10 mi
10:30 AM66 °FSunny.No wind60%30.09 "Hg10 mi
10:00 AM61 °FPassing clouds.No wind68%30.09 "HgN/A
9:30 AM61 °FPassing clouds.No wind68%30.09 "HgN/A
9:00 AM55 °FPassing clouds.No wind82%30.09 "HgN/A
8:30 AM52 °FPassing clouds.No wind88%30.09 "HgN/A
8:00 AM50 °FPassing clouds.No wind88%30.09 "HgN/A
7:30 AM50 °FPassing clouds.No wind88%30.09 "HgN/A
7:00 AM50 °FClear.1 mph88%30.07 "Hg10 mi
6:30 AM50 °FClear.1 mph88%30.07 "Hg10 mi
6:00 AM52 °FClear.1 mph88%30.07 "Hg10 mi
11:00 PM
Apr 16
66 °FPassing clouds.7 mph56%30.09 "HgN/A
10:30 PM68 °FPassing clouds.1 mph53%30.09 "HgN/A
10:00 PM68 °FPassing clouds.2 mph53%30.09 "HgN/A
Weather by CustomWeather, © 2014

See weather overview